Temp
9 7 7 7 6 5 5 5 5 5 5 4 4 3 2 2 1 1 0 0 -1 -1 -2 -2 -3 -3 -3 -4 -4 -4 -4 -4 -4 -4 -5 -5 -5 -5 -5 -5 -5 -6 -6
8 7 7 6 6 5 4 5 5 4 4 4 3 3 2 1 1 0 -0 -1 -2 -2 -3 -3 -4 -4 -4 -4 -4 -4 -5 -5 -5 -4 -4 -4 -5 -5 -5 -6 -6 -6 -7
8 7 6 6 5 5 4 5 4 4 4 4 3 3 2 1 0 -0 -1 -2 -2 -3 -3 -3 -4 -4 -4 -4 -4 -5 -6 -5 -5 -5 -4 -5 -6 -6 -7 -7 -7 -7 -7
7 7 6 6 5 5 4 4 4 4 4 4 3 2 1 1 0 -1 -1 -2 -3 -3 -3 -4 -4 -4 -4 -4 -4 -5 -5 -5 -6 -5 -5 -5 -6 -7 -7 -7 -7 -7 -7
7 6 6 6 5 5 4 4 4 4 4 4 3 2 1 0 -0 -1 -2 -2 -3 -4 -4 -4 -4 -4 -5 -4 -5 -6 -6 -6 -5 -5 -5 -5 -6 -7 -7 -7 -6 -6 -6
8 6 6 6 5 4 4 3 3 3 3 3 2 1 1 0 -1 -1 -2 -3 -4 -4 -4 -4 -4 -4 -4 -4 -5 -5 -6 -6 -6 -5 -5 -6 -6 -7 -7 -7 -6 -6 -6
6 5 6 6 4 4 4 3 3 3 3 3 1 1 1 0 -1 -2 -3 -3 -4 -4 -4 -4 -4 -3 -4 -5 -5 -6 -6 -6 -6 -6 -6 -6 -7 -7 -7 -7 -7 -7 -7
5 5 5 5 4 3 2 2 2 3 3 2 1 1 -0 -1 -2 -2 -3 -3 -4 -4 -4 -4 -4 -4 -4 -5 -6 -6 -6 -6 -6 -6 -6 -7 -7 -8 -8 -7 -7 -7 -7
5 5 4 4 4 3 2 2 2 2 3 2 1 1 -0 -1 -2 -3 -4 -4 -4 -4 -4 -4 -4 -4 -5 -6 -6 -6 -6 -6 -7 -7 -7 -8 -8 -8 -8 -7 -8 -8 -7
5 4 3 3 2 3 2 1 2 2 2 2 1 0 -1 -2 -3 -3 -4 -4 -4 -4 -4 -4 -4 -5 -6 -6 -6 -7 -7 -7 -7 -8 -8 -9 -8 -8 -8 -8 -8 -8 -8
3 3 3 2 3 3 3 2 2 2 2 1 0 -1 -2 -3 -4 -3 -4 -4 -4 -4 -4 -4 -5 -5 -5 -6 -7 -8 -8 -8 -8 -8 -8 -8 -8 -8 -8 -8 -8 -8 -8
4 3 3 3 3 3 2 2 2 1 1 0 -1 -2 -3 -3 -4 -4 -4 -4 -4 -4 -4 -5 -5 -6 -6 -7 -8 -8 -8 -8 -8 -8 -8 -8 -8 -8 -8 -8 -8 -8 -8
4 3 3 3 3 3 2 2 2 1 1 -0 -1 -4 -4 -4 -4 -4 -4 -4 -4 -4 -4 -5 -6 -6 -7 -7 -8 -8 -8 -8 -8 -8 -8 -8 -8 -8 -8 -8 -8 -8 -8
4 3 3 2 2 3 1 1 2 2 1 -1 -4 -3 -4 -5 -5 -5 -4 -4 -5 -5 -5 -6 -7 -8 -7 -8 -9 -9 -9 -8 -8 -8 -8 -8 -8 -8 -8 -8 -8 -8 -8
3 3 3 1 2 1 1 1 1 1 -0 -1 -4 -4 -5 -5 -5 -5 -5 -5 -4 -5 -5 -7 -8 -7 -8 -9 -10 -9 -8 -8 -8 -8 -8 -8 -8 -8 -8 -8 -8 -8 -8
3 3 1 3 1 1 1 1 1 0 -1 -3 -4 -4 -5 -5 -5 -5 -4 -4 -4 -5 -6 -8 -8 -8 -9 -9 -9 -9 -8 -8 -8 -8 -8 -8 -8 -8 -8 -8 -8 -8 -8
2 2 1 2 1 1 1 1 0 -1 -2 -4 -4 -4 -4 -4 -4 -4 -4 -4 -4 -6 -7 -8 -9 -9 -9 -8 -8 -9 -9 -8 -8 -8 -8 -8 -8 -8 -8 -8 -8 -8 -9
3 1 1 2 1 0 0 0 -1 -3 -4 -4 -4 -4 -4 -5 -4 -4 -4 -4 -5 -7 -7 -8 -9 -9 -9 -8 -8 -8 -8 -8 -8 -8 -8 -8 -8 -8 -8 -8 -8 -9 -9
1 1 1 1 1 0 -0 -1 -3 -3 -4 -4 -4 -4 -5 -5 -4 -4 -4 -4 -6 -7 -7 -7 -8 -8 -9 -8 -8 -8 -8 -8 -8 -8 -8 -8 -8 -8 -8 -8 -9 -9 -9
1 1 1 1 -0 1 -1 -2 -3 -3 -4 -4 -4 -4 -4 -4 -4 -4 -4 -6 -7 -7 -7 -7 -7 -8 -7 -8 -8 -9 -8 -8 -9 -8 -8 -8 -8 -9 -9 -9 -9 -9 -8
1 -0 -0 0 1 -1 -2 -3 -3 -3 -3 -5 -5 -4 -4 -4 -4 -5 -5 -6 -6 -6 -6 -7 -7 -7 -7 -8 -8 -8 -9 -9 -9 -8 -8 -8 -9 -8 -9 -9 -8 -9 -9
-0 0 -0 -0 -2 -2 -3 -3 -3 -3 -4 -5 -5 -4 -4 -4 -4 -4 -5 -5 -5 -6 -6 -7 -7 -7 -7 -8 -8 -8 -8 -8 -8 -8 -8 -8 -8 -8 -8 -8 -9 -9 -9
-1 -1 -1 -2 -3 -3 -3 -3 -3 -4 -5 -5 -5 -4 -4 -4 -4 -5 -5 -5 -5 -6 -6 -7 -7 -7 -7 -8 -8 -8 -8 -8 -8 -8 -8 -7 -7 -8 -8 -8 -8 -9 -9
-1 -2 -2 -3 -3 -3 -3 -3 -3 -4 -5 -5 -5 -4 -4 -4 -4 -5 -5 -5 -6 -6 -7 -7 -7 -7 -8 -8 -8 -8 -8 -8 -8 -7 -7 -8 -8 -8 -8 -8 -9 -9 -9
-3 -3 -3 -3 -3 -3 -3 -3 -4 -4 -4 -4 -4 -4 -4 -4 -4 -5 -4 -5 -6 -6 -7 -7 -7 -8 -8 -8 -8 -8 -8 -8 -8 -8 -8 -8 -8 -8 -8 -9 -9 -9 -9
-3 -3 -3 -3 -3 -3 -3 -3 -3 -3 -3 -4 -4 -4 -4 -4 -4 -4 -5 -6 -6 -7 -7 -7 -7 -8 -8 -8 -8 -8 -8 -8 -8 -8 -8 -8 -8 -8 -9 -9 -9 -9 -9
Height
3136 3140 3143 3146 3148 3146 3142 3137 3133 3128 3127 3123 3119 3117 3116 3114 3112 3110 3109 3109 3107 3106 3105 3103 3101 3098 3097 3094 3090 3088 3085 3081 3076 3075 3072 3068 3063 3059 3056 3053 3050 3047 3044
3133 3135 3139 3142 3142 3143 3139 3135 3133 3128 3125 3122 3117 3114 3112 3111 3109 3107 3106 3105 3104 3103 3102 3100 3099 3096 3094 3091 3088 3085 3081 3077 3072 3067 3065 3060 3055 3051 3048 3045 3043 3041 3038
3127 3130 3134 3137 3137 3138 3136 3133 3130 3127 3124 3120 3114 3111 3109 3108 3107 3106 3105 3104 3104 3103 3101 3099 3096 3093 3091 3088 3084 3081 3077 3072 3067 3062 3058 3054 3049 3044 3042 3040 3037 3035 3032
3122 3125 3129 3132 3133 3133 3133 3131 3128 3126 3122 3116 3112 3109 3106 3105 3104 3104 3103 3102 3101 3100 3098 3096 3093 3090 3086 3083 3079 3076 3072 3065 3061 3056 3052 3048 3043 3040 3036 3034 3032 3029 3026
3117 3120 3123 3124 3126 3127 3127 3125 3124 3121 3117 3113 3109 3106 3103 3102 3101 3101 3100 3099 3098 3097 3096 3093 3090 3086 3083 3079 3075 3070 3065 3060 3055 3050 3046 3041 3038 3035 3032 3029 3026 3023 3020
3115 3116 3117 3117 3120 3122 3122 3121 3120 3117 3113 3108 3104 3101 3100 3099 3098 3098 3096 3096 3095 3094 3092 3090 3086 3082 3078 3074 3070 3064 3059 3053 3048 3043 3039 3035 3032 3029 3026 3023 3020 3018 3016
3111 3113 3114 3115 3116 3118 3118 3118 3117 3114 3110 3105 3101 3098 3096 3095 3095 3095 3094 3093 3093 3092 3088 3084 3081 3077 3073 3068 3063 3059 3055 3050 3043 3037 3033 3030 3027 3023 3020 3018 3016 3014 3012
3108 3108 3111 3111 3111 3112 3112 3113 3113 3110 3106 3103 3098 3096 3094 3093 3092 3092 3091 3091 3090 3087 3084 3079 3075 3071 3067 3062 3058 3053 3047 3042 3037 3031 3027 3024 3022 3019 3016 3014 3012 3011 3008
3102 3102 3106 3107 3106 3106 3106 3108 3109 3106 3102 3098 3095 3093 3091 3091 3090 3090 3090 3089 3087 3083 3078 3074 3068 3063 3059 3055 3051 3046 3041 3036 3031 3026 3022 3019 3018 3016 3013 3011 3009 3007 3005
3095 3097 3098 3103 3102 3100 3101 3103 3101 3101 3097 3094 3091 3089 3088 3089 3089 3088 3087 3085 3084 3078 3073 3068 3063 3058 3053 3050 3045 3040 3035 3031 3028 3023 3020 3017 3016 3013 3010 3008 3006 3003 3000
3090 3093 3095 3097 3096 3095 3095 3098 3096 3097 3092 3090 3088 3086 3085 3086 3086 3085 3083 3081 3079 3076 3068 3063 3058 3054 3049 3044 3040 3035 3031 3028 3024 3021 3018 3015 3012 3010 3007 3005 3002 2999 2997
3084 3086 3090 3090 3090 3090 3091 3093 3093 3091 3088 3086 3084 3082 3083 3083 3083 3082 3080 3078 3075 3069 3064 3057 3052 3047 3044 3040 3036 3031 3026 3024 3021 3018 3015 3012 3010 3007 3005 3002 3000 2997 2994
3078 3081 3084 3082 3082 3083 3087 3087 3087 3085 3083 3082 3081 3081 3082 3081 3080 3078 3077 3073 3069 3063 3058 3054 3048 3043 3039 3036 3032 3027 3022 3019 3017 3014 3011 3009 3007 3005 3001 2998 2996 2993 2992
3068 3074 3076 3073 3075 3079 3083 3082 3082 3081 3080 3079 3078 3079 3079 3078 3077 3074 3072 3067 3063 3058 3052 3047 3043 3041 3037 3032 3028 3022 3018 3015 3013 3010 3008 3006 3004 3002 2998 2995 2992 2990 2988
3069 3068 3071 3065 3072 3073 3079 3079 3077 3077 3078 3076 3076 3078 3076 3075 3073 3070 3067 3063 3058 3054 3049 3044 3039 3036 3032 3028 3025 3020 3015 3012 3009 3007 3004 3002 3000 2998 2995 2991 2989 2986 2983
3058 3063 3064 3065 3069 3074 3075 3076 3076 3075 3074 3075 3077 3077 3075 3073 3070 3067 3063 3058 3054 3050 3046 3042 3037 3031 3026 3025 3022 3017 3012 3009 3006 3003 3001 2999 2996 2993 2991 2988 2985 2982 2978
3053 3057 3060 3063 3068 3070 3072 3073 3073 3072 3073 3074 3074 3074 3072 3071 3067 3063 3059 3055 3050 3046 3041 3038 3034 3029 3026 3022 3019 3015 3010 3007 3003 3000 2998 2995 2992 2989 2985 2982 2979 2976 2973
3048 3052 3057 3059 3063 3068 3070 3070 3070 3071 3072 3073 3072 3072 3070 3067 3063 3060 3056 3051 3047 3043 3039 3035 3031 3028 3022 3018 3015 3012 3008 3005 3001 2998 2994 2991 2988 2985 2981 2978 2974 2971 2967
3043 3048 3051 3057 3061 3064 3067 3067 3068 3070 3071 3070 3070 3070 3068 3064 3059 3055 3052 3049 3044 3039 3037 3034 3030 3025 3020 3015 3012 3009 3005 3002 2998 2995 2991 2988 2984 2980 2977 2973 2970 2966 2962
3037 3043 3050 3055 3057 3059 3061 3063 3067 3068 3068 3067 3066 3065 3063 3060 3057 3054 3050 3044 3040 3036 3034 3031 3026 3021 3017 3014 3011 3006 3002 2998 2994 2990 2987 2983 2979 2976 2972 2968 2964 2960 2957
3030 3038 3048 3052 3053 3056 3058 3061 3065 3066 3066 3065 3063 3061 3060 3057 3053 3050 3047 3044 3040 3036 3031 3027 3022 3018 3016 3012 3008 3004 2999 2994 2990 2986 2982 2978 2974 2971 2967 2962 2958 2955 2951
3029 3039 3045 3048 3052 3056 3059 3061 3063 3063 3063 3062 3061 3058 3056 3054 3052 3049 3045 3041 3036 3032 3028 3024 3020 3016 3013 3009 3004 3000 2995 2991 2986 2982 2978 2974 2970 2965 2961 2957 2953 2949 2945
3028 3037 3042 3049 3052 3057 3059 3061 3062 3062 3061 3060 3058 3057 3055 3052 3050 3046 3042 3038 3034 3029 3025 3021 3018 3014 3011 3006 3001 2997 2992 2987 2982 2977 2973 2969 2964 2959 2955 2951 2947 2943 2940
3032 3037 3043 3049 3053 3056 3060 3062 3063 3062 3060 3058 3056 3055 3053 3050 3047 3043 3039 3036 3032 3027 3023 3019 3015 3012 3008 3004 3000 2994 2989 2984 2979 2974 2968 2963 2958 2953 2949 2945 2941 2938 2934
3031 3038 3043 3049 3053 3056 3058 3058 3059 3059 3058 3057 3055 3053 3051 3047 3044 3040 3037 3034 3029 3025 3021 3017 3014 3010 3006 3002 2997 2992 2987 2981 2975 2969 2964 2959 2954 2949 2945 2941 2937 2933 2930
3033 3039 3044 3050 3053 3054 3057 3058 3058 3058 3056 3055 3053 3052 3048 3045 3042 3039 3036 3032 3028 3023 3020 3016 3012 3009 3005 3000 2995 2990 2984 2978 2971 2965 2960 2955 2950 2946 2941 2936 2932 2928 2926
Wind_Speed
20 17 16 11 8 7 8 10 14 17 18 18 18 15 13 14 13 12 11 11 9 8 9 11 11 12 11 15 18 17 18 25 28 24 24 28 30 32 30 30 29 25 22
20 21 19 13 9 7 7 10 13 16 17 18 17 15 13 12 11 11 12 12 9 8 9 11 13 14 17 18 20 20 27 29 32 32 33 31 29 29 28 26 25 23 26
23 23 21 16 11 6 7 10 15 16 17 17 17 15 13 11 10 9 10 9 8 8 10 13 14 16 17 18 19 22 28 33 30 32 33 29 26 27 27 24 26 28 29
26 26 22 17 12 9 7 11 14 17 17 17 16 14 12 10 9 9 9 8 7 8 11 15 19 20 24 25 23 25 36 31 32 34 33 29 26 22 23 23 23 28 30
29 28 24 19 16 13 10 12 16 20 19 18 16 14 11 10 10 10 9 7 7 9 14 18 21 22 23 25 29 29 35 32 34 34 32 28 23 22 22 25 25 22 21
26 29 26 23 18 15 11 12 16 19 20 19 17 15 11 10 9 10 7 7 8 12 17 20 22 25 25 26 27 31 32 36 37 35 30 25 21 22 24 22 21 18 16
22 29 28 23 19 15 14 15 17 21 22 19 15 13 12 10 9 9 8 6 9 14 18 23 24 25 28 30 32 31 32 34 35 33 28 22 20 21 19 16 17 16 16
21 31 29 26 19 14 15 17 17 21 22 19 13 11 9 9 8 9 7 7 11 16 22 26 29 29 32 32 34 34 36 34 29 28 26 23 20 18 16 14 14 16 18
12 17 27 23 16 20 17 19 19 21 22 18 12 10 8 9 8 6 6 13 15 21 25 29 30 30 30 32 33 34 31 25 22 23 20 15 13 14 17 14 13 19 14
24 8 23 23 11 9 17 21 15 22 21 16 11 10 8 6 6 7 12 15 18 26 29 30 28 26 25 27 29 30 23 19 17 17 15 12 12 15 15 14 14 13 15
15 14 16 22 12 12 19 21 12 21 20 13 9 7 5 7 8 10 16 16 24 27 31 30 28 27 26 23 22 25 21 16 16 16 15 15 13 12 13 13 15 15 17
20 18 18 19 17 14 17 18 14 19 18 12 8 7 5 11 14 16 18 21 26 30 31 32 30 28 25 23 21 26 19 21 18 17 14 13 13 16 15 14 14 13 15
19 16 18 24 19 25 16 15 15 18 16 11 10 5 7 11 16 19 20 25 29 32 31 28 25 22 23 21 27 27 23 20 17 18 16 11 12 14 16 15 15 15 14
24 20 20 19 16 19 14 12 16 18 14 11 8 8 12 17 17 20 24 29 33 32 29 24 18 19 19 23 29 32 29 22 20 20 18 15 12 15 16 16 14 16 16
26 12 20 20 21 15 16 11 15 16 13 8 5 10 13 16 20 23 27 30 29 26 23 17 21 22 23 27 29 29 25 21 19 17 15 13 15 17 15 15 14 15 17
27 15 17 18 20 15 13 13 14 14 10 5 11 14 16 18 20 23 25 24 22 21 18 17 22 24 27 31 24 24 24 20 18 15 14 16 18 19 18 17 17 18 19
21 21 18 12 16 20 10 14 13 8 5 5 8 11 12 16 17 21 20 20 19 18 18 20 23 24 30 28 21 20 20 19 18 16 16 17 18 18 18 18 19 19 20
28 20 17 14 19 11 12 11 5 0 1 5 6 9 10 15 19 19 19 19 18 19 21 23 25 27 29 26 22 18 17 18 18 16 15 15 16 18 18 19 19 20 21
23 21 17 18 20 10 11 9 1 2 6 6 8 9 14 16 19 21 21 20 20 21 23 24 23 21 20 23 23 22 20 19 19 18 17 16 18 20 20 21 22 22 23
28 23 22 19 12 11 10 1 2 7 8 10 11 14 16 17 18 19 20 21 21 23 24 23 20 19 19 21 22 24 25 24 20 19 19 19 20 22 24 25 24 23 20
39 27 18 20 8 9 5 5 9 11 16 10 16 16 15 15 17 18 18 19 20 21 22 21 19 19 19 20 22 23 21 20 20 20 20 21 22 23 24 24 22 21 20
29 23 21 11 15 13 16 13 11 14 13 14 13 17 19 17 17 17 18 19 21 21 21 19 18 18 20 22 22 20 19 20 21 21 22 22 22 22 23 23 22 23 23
27 21 17 20 20 14 16 10 8 13 14 14 15 18 17 17 17 17 20 21 22 21 20 18 17 18 20 19 19 21 22 23 24 25 24 24 24 24 24 23 23 22 19
20 23 23 23 23 19 19 18 14 14 16 18 17 17 16 16 16 18 22 22 21 20 18 17 18 20 18 16 20 22 23 25 26 27 26 25 24 24 23 22 22 20 16
33 30 26 26 23 19 18 16 16 16 15 12 11 12 14 14 16 20 23 21 19 19 17 17 19 18 18 21 22 22 25 26 27 27 27 27 24 22 21 23 22 16 14
35 27 21 20 21 22 19 18 13 9 8 7 8 10 12 15 17 21 21 18 18 17 16 18 17 16 19 21 21 23 27 27 28 29 26 24 22 23 24 23 20 17 16
Wind_Direction
245 212 224 235 251 269 321 340 332 337 339 338 335 333 334 327 322 321 320 323 328 331 344 345 344 347 350 344 343 336 339 337 331 329 324 315 302 298 298 298 304 309 308
221 211 222 232 241 259 311 339 337 336 335 334 333 329 334 329 320 317 318 327 332 342 333 338 327 324 334 334 328 324 324 330 325 322 318 318 306 303 304 304 305 305 308
216 212 222 229 236 252 304 334 333 336 332 332 334 329 334 326 316 314 306 313 321 322 332 331 334 327 320 322 321 321 322 316 321 320 319 319 310 309 304 305 303 300 303
218 215 220 229 238 253 290 323 333 335 330 335 334 328 331 322 316 305 298 299 305 320 327 332 331 326 317 317 317 327 332 325 323 319 320 318 310 306 306 306 302 302 303
219 217 216 227 238 255 274 310 325 333 331 336 338 328 329 326 316 303 293 310 315 328 327 324 324 319 316 305 311 317 326 324 320 318 320 314 308 303 300 300 305 309 309
231 217 218 227 240 246 268 298 321 332 333 333 329 324 332 324 308 297 304 306 318 322 319 318 321 315 314 318 313 323 325 324 319 318 319 315 312 307 304 306 309 316 316
266 224 223 228 233 249 278 290 312 324 330 325 321 316 323 325 305 295 298 299 310 315 316 322 318 312 324 319 320 324 321 317 316 317 317 314 312 309 312 312 308 314 320
273 228 224 225 233 244 276 284 303 322 323 318 316 309 311 303 290 285 279 299 315 317 320 323 323 322 317 322 318 320 321 320 317 315 312 307 310 313 317 320 315 320 325
250 233 220 226 243 270 268 271 291 315 316 314 311 309 303 299 298 286 311 315 323 322 328 326 325 322 320 318 316 318 321 323 326 324 324 312 312 319 319 313 308 323 332
252 279 226 216 232 248 264 262 285 307 312 310 313 306 305 311 302 298 320 317 328 327 328 330 328 322 315 317 321 325 327 329 330 332 337 336 312 314 321 323 328 333 333
276 239 221 217 256 250 273 256 298 305 307 308 300 294 303 293 314 294 300 317 321 323 325 330 325 321 322 326 328 333 328 328 330 329 329 318 314 317 324 320 318 323 325
259 247 252 241 237 277 262 255 297 303 304 298 290 294 320 316 313 309 311 314 321 325 329 327 324 325 325 331 338 340 335 332 324 329 323 330 341 335 323 313 314 315 314
255 272 274 259 255 250 252 259 296 302 297 285 275 267 304 273 281 305 320 321 323 328 325 319 318 320 321 331 340 334 332 322 324 313 318 319 328 331 327 319 317 319 322
252 278 269 262 229 238 246 259 297 299 289 267 271 259 301 313 313 322 320 324 324 320 321 324 323 318 323 341 341 338 334 327 303 312 323 318 314 324 323 315 311 315 317
266 266 286 266 243 222 242 285 299 289 275 283 290 282 292 298 309 317 318 316 318 318 323 332 322 328 340 346 339 329 329 325 314 314 312 313 310 313 309 315 316 317 319
237 250 254 243 245 249 248 292 291 275 288 290 278 282 290 294 304 311 316 318 320 323 327 336 329 338 339 330 335 337 335 330 324 319 317 317 316 317 316 314 310 311 315
245 246 235 193 226 241 283 289 272 266 263 271 274 270 286 306 313 319 323 326 329 333 338 339 332 332 326 328 338 342 334 333 333 327 320 320 323 327 325 321 315 313 310
234 204 191 191 231 247 265 261 235 300 234 248 288 295 329 323 322 326 329 335 342 336 340 334 329 322 318 323 337 340 337 336 336 333 331 329 327 327 328 325 322 315 310
215 192 217 217 224 225 237 216 183 29 332 284 290 326 326 323 324 329 328 330 329 335 333 326 326 320 311 326 341 342 339 336 333 329 323 318 322 327 327 325 323 319 314
218 216 206 221 218 246 226 116 320 303 298 281 344 333 331 332 321 320 326 329 328 332 326 329 329 321 322 333 335 331 334 338 324 319 320 319 318 321 322 323 320 319 318
202 191 199 212 214 196 187 213 264 268 317 305 321 318 328 323 329 332 333 334 335 332 329 330 329 325 338 334 332 333 330 327 331 329 328 325 322 320 318 316 319 322 320
179 184 202 161 170 177 198 219 234 292 303 300 292 317 333 334 332 336 337 341 338 332 332 332 331 337 336 340 334 337 341 342 339 333 329 325 321 319 321 322 319 316 313
177 182 157 158 172 189 213 227 244 271 280 280 302 318 326 330 331 337 344 342 336 334 335 336 339 339 343 337 341 344 342 342 341 339 337 332 327 323 321 317 313 315 317
170 157 162 169 178 195 212 232 261 267 282 281 295 314 325 326 337 344 344 337 335 336 339 341 341 344 343 343 343 342 343 343 339 340 338 336 331 329 329 329 322 312 316
151 164 168 178 190 209 222 239 265 276 281 291 313 323 321 334 349 342 339 335 336 340 343 343 347 347 349 347 344 343 341 340 341 339 334 335 336 335 336 329 328 332 328
162 170 175 189 203 217 237 247 258 266 292 315 326 321 332 344 351 338 336 338 341 345 348 347 351 354 346 345 343 342 343 343 341 341 343 342 338 335 328 330 332 327 320